Time,TemperatureF,DewpointF,PressureIn,WindDirection,WindDirectionDegrees,WindSpeedMPH,WindSpeedGustMPH,Humidity,HourlyPrecipIn,Conditions,Clouds,dailyrainin,SoftwareType,DateUTC
2013-02-14 00:04:00,35.1,34.0,29.74,NW,311,3.0,7.0,96,0.01,,,0.00,WUHU216DAVISVP2,2013-02-14 05:04:00,
2013-02-14 00:09:00,35.2,34.1,29.74,NW,309,2.0,7.0,96,0.01,,,0.00,WUHU216DAVISVP2,2013-02-14 05:09:00,
2013-02-14 00:14:00,35.2,34.1,29.75,WNW,299,1.0,6.0,96,0.01,,,0.00,WUHU216DAVISVP2,2013-02-14 05:14:00,
2013-02-14 00:20:00,35.2,34.1,29.75,NW,314,0.0,6.0,96,0.01,,,0.00,WUHU216DAVISVP2,2013-02-14 05:20:00,
2013-02-14 00:25:00,35.3,34.2,29.75,North,359,4.0,6.0,96,0.01,,,0.00,WUHU216DAVISVP2,2013-02-14 05:25:00,
2013-02-14 00:30:00,35.3,34.2,29.75,North,359,0.0,6.0,96,0.01,,,0.01,WUHU216DAVISVP2,2013-02-14 05:30:00,
2013-02-14 00:35:00,35.4,34.3,29.75,West,260,2.0,4.0,96,0.01,,,0.01,WUHU216DAVISVP2,2013-02-14 05:35:00,
2013-02-14 00:40:00,35.4,34.3,29.75,NW,310,1.0,4.0,96,0.01,,,0.01,WUHU216DAVISVP2,2013-02-14 05:40:00,
2013-02-14 00:45:00,35.5,34.4,29.76,WNW,297,2.0,4.0,96,0.01,,,0.01,WUHU216DAVISVP2,2013-02-14 05:45:00,
2013-02-14 00:51:00,35.6,34.5,29.75,WNW,289,0.0,4.0,96,0.01,,,0.01,WUHU216DAVISVP2,2013-02-14 05:51:00,
2013-02-14 00:56:00,35.6,34.5,29.76,WNW,293,0.0,4.0,96,0.01,,,0.01,WUHU216DAVISVP2,2013-02-14 05:56:00,
2013-02-14 01:01:00,35.7,34.6,29.76,WNW,300,0.0,4.0,96,0.01,,,0.01,WUHU216DAVISVP2,2013-02-14 06:01:00,
2013-02-14 01:06:00,35.8,34.7,29.76,NW,320,0.0,3.0,96,0.01,,,0.01,WUHU216DAVISVP2,2013-02-14 06:06:00,
2013-02-14 01:11:00,35.8,34.7,29.76,North,359,1.0,3.0,96,0.01,,,0.01,WUHU216DAVISVP2,2013-02-14 06:11:00,
2013-02-14 01:16:00,35.9,34.6,29.77,WNW,300,1.0,4.0,95,0.01,,,0.01,WUHU216DAVISVP2,2013-02-14 06:16:00,
2013-02-14 01:21:00,36.0,34.9,29.77,WNW,290,2.0,4.0,96,0.02,,,0.02,WUHU216DAVISVP2,2013-02-14 06:21:00,
2013-02-14 01:26:00,36.1,35.0,29.78,WNW,291,0.0,4.0,96,0.02,,,0.02,WUHU216DAVISVP2,2013-02-14 06:26:00,
2013-02-14 01:31:00,36.1,34.8,29.78,WSW,243,1.0,4.0,95,0.01,,,0.02,WUHU216DAVISVP2,2013-02-14 06:31:00,
2013-02-14 01:36:00,36.1,34.8,29.78,WSW,238,3.0,4.0,95,0.01,,,0.02,WUHU216DAVISVP2,2013-02-14 06:36:00,
2013-02-14 01:41:00,36.1,34.8,29.78,SW,236,0.0,4.0,95,0.01,,,0.02,WUHU216DAVISVP2,2013-02-14 06:41:00,
2013-02-14 01:46:00,36.2,34.9,29.79,WSW,237,0.0,4.0,95,0.01,,,0.02,WUHU216DAVISVP2,2013-02-14 06:46:00,
2013-02-14 01:51:00,36.2,34.9,29.79,WSW,241,2.0,4.0,95,0.01,,,0.02,WUHU216DAVISVP2,2013-02-14 06:51:00,
2013-02-14 01:56:00,36.2,34.9,29.79,SW,224,2.0,4.0,95,0.01,,,0.02,WUHU216DAVISVP2,2013-02-14 06:56:00,
2013-02-14 02:01:00,36.2,34.9,29.80,WSW,249,0.0,4.0,95,0.01,,,0.02,WUHU216DAVISVP2,2013-02-14 07:01:00,
2013-02-14 02:06:00,36.2,34.9,29.80,WSW,246,0.0,4.0,95,0.01,,,0.02,WUHU216DAVISVP2,2013-02-14 07:06:00,
2013-02-14 02:11:00,36.2,34.9,29.80,West,260,0.0,4.0,95,0.01,,,0.02,WUHU216DAVISVP2,2013-02-14 07:11:00,
2013-02-14 02:16:00,36.2,34.9,29.80,SW,233,0.0,4.0,95,0.01,,,0.02,WUHU216DAVISVP2,2013-02-14 07:16:00,
2013-02-14 02:21:00,36.3,35.0,29.81,SW,233,2.0,3.0,95,0.00,,,0.02,WUHU216DAVISVP2,2013-02-14 07:21:00,
2013-02-14 02:26:00,36.3,35.0,29.81,SW,233,0.0,3.0,95,0.00,,,0.02,WUHU216DAVISVP2,2013-02-14 07:26:00,
2013-02-14 02:31:00,36.2,34.6,29.81,SW,231,2.0,5.0,94,0.00,,,0.02,WUHU216DAVISVP2,2013-02-14 07:31:00,
2013-02-14 02:36:00,36.0,34.4,29.81,WSW,241,1.0,5.0,94,0.00,,,0.02,WUHU216DAVISVP2,2013-02-14 07:36:00,
2013-02-14 02:41:00,35.9,34.3,29.81,WSW,249,2.0,5.0,94,0.00,,,0.02,WUHU216DAVISVP2,2013-02-14 07:41:00,
2013-02-14 02:46:00,35.8,34.2,29.81,WSW,242,1.0,6.0,94,0.00,,,0.02,WUHU216DAVISVP2,2013-02-14 07:46:00,
2013-02-14 02:51:00,35.7,34.1,29.81,WSW,238,1.0,6.0,94,0.00,,,0.02,WUHU216DAVISVP2,2013-02-14 07:51:00,
2013-02-14 02:56:00,35.7,34.4,29.81,SW,225,0.0,6.0,95,0.00,,,0.02,WUHU216DAVISVP2,2013-02-14 07:56:00,
2013-02-14 03:02:00,35.6,34.0,29.82,WSW,255,1.0,6.0,94,0.00,,,0.02,WUHU216DAVISVP2,2013-02-14 08:02:00,
2013-02-14 03:07:00,35.4,34.1,29.82,WSW,242,0.0,4.0,95,0.00,,,0.02,WUHU216DAVISVP2,2013-02-14 08:07:00,
2013-02-14 03:12:00,35.3,34.0,29.82,WSW,243,1.0,4.0,95,0.00,,,0.02,WUHU216DAVISVP2,2013-02-14 08:12:00,
2013-02-14 03:17:00,35.2,33.9,29.82,West,265,1.0,4.0,95,0.00,,,0.02,WUHU216DAVISVP2,2013-02-14 08:17:00,
2013-02-14 03:22:00,35.2,33.9,29.82,West,266,1.0,6.0,95,0.00,,,0.02,WUHU216DAVISVP2,2013-02-14 08:22:00,
2013-02-14 03:27:00,35.1,33.8,29.82,West,267,1.0,6.0,95,0.00,,,0.02,WUHU216DAVISVP2,2013-02-14 08:27:00,
2013-02-14 03:32:00,35.0,33.7,29.82,West,268,3.0,6.0,95,0.00,,,0.02,WUHU216DAVISVP2,2013-02-14 08:32:00,
2013-02-14 03:37:00,34.9,33.6,29.83,North,359,3.0,6.0,95,0.00,,,0.02,WUHU216DAVISVP2,2013-02-14 08:37:00,
2013-02-14 03:42:00,34.8,33.5,29.83,WSW,239,2.0,5.0,95,0.00,,,0.02,WUHU216DAVISVP2,2013-02-14 08:42:00,
2013-02-14 03:47:00,34.8,33.5,29.83,WSW,239,0.0,4.0,95,0.00,,,0.02,WUHU216DAVISVP2,2013-02-14 08:47:00,
2013-02-14 03:52:00,34.8,33.5,29.84,WSW,239,0.0,3.0,95,0.00,,,0.02,WUHU216DAVISVP2,2013-02-14 08:52:00,
2013-02-14 03:57:00,34.7,33.4,29.84,WSW,239,1.0,3.0,95,0.00,,,0.02,WUHU216DAVISVP2,2013-02-14 08:57:00,
2013-02-14 04:02:00,34.7,33.4,29.84,SW,235,0.0,3.0,95,0.00,,,0.02,WUHU216DAVISVP2,2013-02-14 09:02:00,
2013-02-14 04:07:00,34.6,33.3,29.85,WSW,243,0.0,3.0,95,0.01,,,0.03,WUHU216DAVISVP2,2013-02-14 09:07:00,
2013-02-14 04:12:00,34.6,33.3,29.85,WSW,244,0.0,3.0,95,0.01,,,0.03,WUHU216DAVISVP2,2013-02-14 09:12:00,
2013-02-14 04:17:00,34.6,33.3,29.85,SW,231,1.0,3.0,95,0.01,,,0.03,WUHU216DAVISVP2,2013-02-14 09:17:00,
2013-02-14 04:22:00,34.5,33.2,29.85,SW,230,0.0,3.0,95,0.01,,,0.03,WUHU216DAVISVP2,2013-02-14 09:22:00,
2013-02-14 04:27:00,34.4,33.1,29.85,SW,231,0.0,3.0,95,0.01,,,0.03,WUHU216DAVISVP2,2013-02-14 09:27:00,
2013-02-14 04:32:00,34.4,33.1,29.86,SW,230,0.0,3.0,95,0.01,,,0.03,WUHU216DAVISVP2,2013-02-14 09:32:00,
2013-02-14 04:37:00,34.3,33.0,29.86,SW,231,0.0,2.0,95,0.01,,,0.03,WUHU216DAVISVP2,2013-02-14 09:37:00,
2013-02-14 04:42:00,34.3,33.0,29.86,SW,224,0.0,3.0,95,0.01,,,0.03,WUHU216DAVISVP2,2013-02-14 09:42:00,
2013-02-14 04:47:00,34.3,33.0,29.86,WSW,253,0.0,3.0,95,0.01,,,0.03,WUHU216DAVISVP2,2013-02-14 09:47:00,
2013-02-14 04:52:00,34.3,33.2,29.87,WSW,252,2.0,3.0,96,0.01,,,0.03,WUHU216DAVISVP2,2013-02-14 09:52:00,
2013-02-14 04:57:00,34.3,33.2,29.87,WNW,301,1.0,3.0,96,0.01,,,0.03,WUHU216DAVISVP2,2013-02-14 09:57:00,
2013-02-14 05:03:00,34.4,33.3,29.87,WNW,293,0.0,3.0,96,0.01,,,0.03,WUHU216DAVISVP2,2013-02-14 10:03:00,
2013-02-14 05:08:00,34.4,33.3,29.87,WNW,293,0.0,3.0,96,0.00,,,0.03,WUHU216DAVISVP2,2013-02-14 10:08:00,
2013-02-14 05:13:00,34.4,33.3,29.87,WNW,293,1.0,2.0,96,0.00,,,0.03,WUHU216DAVISVP2,2013-02-14 10:13:00,
2013-02-14 05:18:00,34.4,33.1,29.87,WNW,292,0.0,2.0,95,0.00,,,0.03,WUHU216DAVISVP2,2013-02-14 10:18:00,
2013-02-14 05:23:00,34.5,33.2,29.88,WNW,293,0.0,2.0,95,0.00,,,0.03,WUHU216DAVISVP2,2013-02-14 10:23:00,
2013-02-14 05:28:00,34.4,33.1,29.88,WNW,292,0.0,2.0,95,0.00,,,0.03,WUHU216DAVISVP2,2013-02-14 10:28:00,
2013-02-14 05:33:00,34.4,33.1,29.88,WNW,293,0.0,2.0,95,0.00,,,0.03,WUHU216DAVISVP2,2013-02-14 10:33:00,
2013-02-14 05:38:00,34.4,33.1,29.88,WNW,282,0.0,2.0,95,0.00,,,0.03,WUHU216DAVISVP2,2013-02-14 10:38:00,
2013-02-14 05:44:00,34.4,33.1,29.88,WNW,282,0.0,2.0,95,0.00,,,0.03,WUHU216DAVISVP2,2013-02-14 10:44:00,
2013-02-14 05:49:00,34.4,33.1,29.89,SW,235,0.0,3.0,95,0.00,,,0.03,WUHU216DAVISVP2,2013-02-14 10:49:00,
2013-02-14 05:54:00,34.4,33.1,29.89,SW,235,1.0,3.0,95,0.00,,,0.03,WUHU216DAVISVP2,2013-02-14 10:54:00,
2013-02-14 05:59:00,34.3,33.0,29.89,SW,235,0.0,3.0,95,0.00,,,0.03,WUHU216DAVISVP2,2013-02-14 10:59:00,
2013-02-14 06:04:00,34.2,32.9,29.89,NNW,334,0.0,3.0,95,0.00,,,0.03,WUHU216DAVISVP2,2013-02-14 11:04:00,
2013-02-14 06:09:00,34.1,32.8,29.89,NNW,334,0.0,1.0,95,0.00,,,0.03,WUHU216DAVISVP2,2013-02-14 11:09:00,
2013-02-14 06:14:00,34.1,32.8,29.90,WNW,284,0.0,2.0,95,0.00,,,0.03,WUHU216DAVISVP2,2013-02-14 11:14:00,
2013-02-14 06:19:00,34.1,32.8,29.90,WNW,284,0.0,2.0,95,0.00,,,0.03,WUHU216DAVISVP2,2013-02-14 11:19:00,
2013-02-14 06:24:00,34.1,32.8,29.90,WNW,284,0.0,3.0,95,0.00,,,0.03,WUHU216DAVISVP2,2013-02-14 11:24:00,
2013-02-14 06:29:00,34.0,32.7,29.91,WNW,284,0.0,3.0,95,0.00,,,0.03,WUHU216DAVISVP2,2013-02-14 11:29:00,
2013-02-14 06:34:00,34.0,32.7,29.91,West,278,0.0,3.0,95,0.00,,,0.03,WUHU216DAVISVP2,2013-02-14 11:34:00,
2013-02-14 06:39:00,33.9,32.4,29.91,West,278,0.0,3.0,94,0.00,,,0.03,WUHU216DAVISVP2,2013-02-14 11:39:00,
2013-02-14 06:44:00,33.9,32.4,29.92,West,271,1.0,2.0,94,0.00,,,0.03,WUHU216DAVISVP2,2013-02-14 11:44:00,
2013-02-14 06:49:00,33.9,32.4,29.91,West,280,1.0,2.0,94,0.00,,,0.03,WUHU216DAVISVP2,2013-02-14 11:49:00,
2013-02-14 06:54:00,33.9,32.4,29.92,West,266,0.0,3.0,94,0.00,,,0.03,WUHU216DAVISVP2,2013-02-14 11:54:00,
2013-02-14 06:59:00,33.9,32.3,29.92,WSW,250,2.0,3.0,94,0.00,,,0.03,WUHU216DAVISVP2,2013-02-14 11:59:00,
2013-02-14 07:05:00,34.0,32.4,29.92,WSW,250,0.0,3.0,94,0.00,,,0.03,WUHU216DAVISVP2,2013-02-14 12:05:00,
2013-02-14 07:10:00,34.0,32.4,29.92,WSW,250,1.0,3.0,94,0.00,,,0.03,WUHU216DAVISVP2,2013-02-14 12:10:00,
2013-02-14 07:15:00,34.0,32.1,29.93,WSW,246,0.0,3.0,93,0.00,,,0.03,WUHU216DAVISVP2,2013-02-14 12:15:00,
2013-02-14 07:20:00,34.0,32.1,29.93,WSW,247,0.0,3.0,93,0.00,,,0.03,WUHU216DAVISVP2,2013-02-14 12:20:00,
2013-02-14 07:26:00,33.9,32.0,29.93,WSW,247,0.0,3.0,93,0.00,,,0.03,WUHU216DAVISVP2,2013-02-14 12:26:00,
2013-02-14 07:31:00,34.0,32.1,29.93,WSW,247,0.0,3.0,93,0.00,,,0.03,WUHU216DAVISVP2,2013-02-14 12:31:00,
2013-02-14 07:36:00,34.1,32.2,29.94,WSW,247,0.0,2.0,93,0.00,,,0.03,WUHU216DAVISVP2,2013-02-14 12:36:00,
2013-02-14 07:41:00,34.1,32.2,29.94,WSW,247,0.0,2.0,93,0.00,,,0.03,WUHU216DAVISVP2,2013-02-14 12:41:00,
2013-02-14 07:46:00,34.3,32.4,29.95,WSW,247,1.0,2.0,93,0.00,,,0.03,WUHU216DAVISVP2,2013-02-14 12:46:00,
2013-02-14 07:51:00,34.4,32.5,29.95,WSW,247,0.0,2.0,93,0.00,,,0.03,WUHU216DAVISVP2,2013-02-14 12:51:00,
2013-02-14 07:56:00,34.7,32.8,29.95,WNW,292,1.0,3.0,93,0.00,,,0.03,WUHU216DAVISVP2,2013-02-14 12:56:00,
2013-02-14 08:01:00,35.0,32.9,29.95,SW,224,0.0,3.0,92,0.00,,,0.03,WUHU216DAVISVP2,2013-02-14 13:01:00,
2013-02-14 08:06:00,35.2,33.1,29.95,WNW,286,1.0,3.0,92,0.00,,,0.03,WUHU216DAVISVP2,2013-02-14 13:06:00,
2013-02-14 08:11:00,35.3,32.9,29.95,WNW,285,0.0,3.0,91,0.00,,,0.03,WUHU216DAVISVP2,2013-02-14 13:11:00,
2013-02-14 08:16:00,35.6,33.2,29.95,WNW,285,0.0,3.0,91,0.00,,,0.03,WUHU216DAVISVP2,2013-02-14 13:16:00,
2013-02-14 08:21:00,36.0,33.6,29.96,SW,235,0.0,3.0,91,0.00,,,0.03,WUHU216DAVISVP2,2013-02-14 13:21:00,
2013-02-14 08:26:00,36.2,33.5,29.96,West,273,1.0,3.0,90,0.00,,,0.03,WUHU216DAVISVP2,2013-02-14 13:26:00,
2013-02-14 08:31:00,36.4,33.4,29.96,NNW,336,4.0,4.0,89,0.00,,,0.03,WUHU216DAVISVP2,2013-02-14 13:31:00,
2013-02-14 08:36:00,36.6,33.3,29.96,NW,308,3.0,5.0,88,0.00,,,0.03,WUHU216DAVISVP2,2013-02-14 13:36:00,
2013-02-14 08:41:00,36.7,33.2,29.97,WSW,247,0.0,5.0,87,0.00,,,0.03,WUHU216DAVISVP2,2013-02-14 13:41:00,
2013-02-14 08:47:00,37.0,32.9,29.97,SW,227,2.0,6.0,85,0.00,,,0.03,WUHU216DAVISVP2,2013-02-14 13:47:00,
2013-02-14 08:52:00,37.3,33.5,29.97,NW,306,0.0,6.0,86,0.00,,,0.03,WUHU216DAVISVP2,2013-02-14 13:52:00,
2013-02-14 08:57:00,37.5,32.8,29.97,NNW,334,1.0,8.0,83,0.00,,,0.03,WUHU216DAVISVP2,2013-02-14 13:57:00,
2013-02-14 09:02:00,37.8,33.4,29.97,WNW,294,2.0,8.0,84,0.00,,,0.03,WUHU216DAVISVP2,2013-02-14 14:02:00,
2013-02-14 09:08:00,38.1,33.1,29.98,NW,316,2.0,8.0,82,0.00,,,0.03,WUHU216DAVISVP2,2013-02-14 14:08:00,
2013-02-14 09:13:00,38.3,32.4,29.98,SW,228,2.0,8.0,79,0.00,,,0.03,WUHU216DAVISVP2,2013-02-14 14:13:00,
2013-02-14 09:18:00,38.5,32.9,29.98,West,280,4.0,9.0,80,0.00,,,0.03,WUHU216DAVISVP2,2013-02-14 14:18:00,
2013-02-14 09:23:00,38.6,32.4,29.98,WNW,299,5.0,9.0,78,0.00,,,0.03,WUHU216DAVISVP2,2013-02-14 14:23:00,
2013-02-14 09:28:00,38.9,32.0,29.98,SW,224,4.0,10.0,76,0.00,,,0.03,WUHU216DAVISVP2,2013-02-14 14:28:00,
2013-02-14 09:33:00,39.2,32.0,29.98,WNW,303,2.0,10.0,75,0.00,,,0.03,WUHU216DAVISVP2,2013-02-14 14:33:00,
2013-02-14 09:38:00,39.3,32.4,29.98,WNW,303,3.0,10.0,76,0.00,,,0.03,WUHU216DAVISVP2,2013-02-14 14:38:00,
2013-02-14 09:43:00,39.4,32.2,29.98,West,276,3.0,10.0,75,0.00,,,0.03,WUHU216DAVISVP2,2013-02-14 14:43:00,
2013-02-14 09:48:00,39.9,32.0,29.98,West,276,1.0,8.0,73,0.00,,,0.03,WUHU216DAVISVP2,2013-02-14 14:48:00,
2013-02-14 09:53:00,40.3,32.4,29.98,NW,318,3.0,8.0,73,0.00,,,0.03,WUHU216DAVISVP2,2013-02-14 14:53:00,
2013-02-14 09:58:00,40.4,31.8,29.98,WNW,294,3.0,7.0,71,0.00,,,0.03,WUHU216DAVISVP2,2013-02-14 14:58:00,
2013-02-14 10:03:00,40.5,31.2,29.98,West,280,7.0,7.0,69,0.00,,,0.03,WUHU216DAVISVP2,2013-02-14 15:03:00,
2013-02-14 10:09:00,40.6,31.3,29.98,NNW,328,3.0,9.0,69,0.00,,,0.03,WUHU216DAVISVP2,2013-02-14 15:09:00,
2013-02-14 10:14:00,40.9,32.3,29.98,West,272,1.0,9.0,71,0.00,,,0.03,WUHU216DAVISVP2,2013-02-14 15:14:00,
2013-02-14 10:20:00,41.4,31.7,29.99,WSW,241,1.0,9.0,68,0.00,,,0.03,WUHU216DAVISVP2,2013-02-14 15:20:00,
2013-02-14 10:25:00,41.6,32.3,29.99,NW,308,0.0,9.0,69,0.00,,,0.03,WUHU216DAVISVP2,2013-02-14 15:25:00,
2013-02-14 10:30:00,41.9,31.8,29.99,WNW,303,5.0,8.0,67,0.00,,,0.03,WUHU216DAVISVP2,2013-02-14 15:30:00,
2013-02-14 10:35:00,42.0,32.2,29.99,NNW,343,5.0,8.0,68,0.00,,,0.03,WUHU216DAVISVP2,2013-02-14 15:35:00,
2013-02-14 10:40:00,42.0,31.1,29.99,North,4,3.0,8.0,65,0.00,,,0.03,WUHU216DAVISVP2,2013-02-14 15:40:00,
2013-02-14 10:45:00,42.2,31.7,29.98,WNW,297,4.0,8.0,66,0.00,,,0.03,WUHU216DAVISVP2,2013-02-14 15:45:00,
2013-02-14 10:50:00,42.1,30.9,29.98,West,274,3.0,8.0,64,0.00,,,0.03,WUHU216DAVISVP2,2013-02-14 15:50:00,
2013-02-14 10:55:00,42.4,30.8,29.99,NW,307,2.0,8.0,63,0.00,,,0.03,WUHU216DAVISVP2,2013-02-14 15:55:00,
2013-02-14 11:00:00,42.7,31.0,29.98,WSW,250,2.0,7.0,63,0.00,,,0.03,WUHU216DAVISVP2,2013-02-14 16:00:00,
2013-02-14 11:05:00,43.1,31.7,29.99,West,278,2.0,7.0,64,0.00,,,0.03,WUHU216DAVISVP2,2013-02-14 16:05:00,
2013-02-14 11:10:00,43.2,30.6,29.98,West,268,2.0,6.0,61,0.00,,,0.03,WUHU216DAVISVP2,2013-02-14 16:10:00,
2013-02-14 11:15:00,43.5,31.3,29.98,SSW,206,3.0,7.0,62,0.00,,,0.03,WUHU216DAVISVP2,2013-02-14 16:15:00,
2013-02-14 11:20:00,43.8,31.3,29.98,SW,232,3.0,7.0,61,0.00,,,0.03,WUHU216DAVISVP2,2013-02-14 16:20:00,
2013-02-14 11:25:00,44.2,30.8,29.98,West,272,3.0,7.0,59,0.00,,,0.03,WUHU216DAVISVP2,2013-02-14 16:25:00,
2013-02-14 11:30:00,43.8,30.0,29.98,NNW,335,2.0,7.0,58,0.00,,,0.03,WUHU216DAVISVP2,2013-02-14 16:30:00,
2013-02-14 11:35:00,44.1,31.6,29.98,NW,313,3.0,6.0,61,0.00,,,0.03,WUHU216DAVISVP2,2013-02-14 16:35:00,
2013-02-14 11:40:00,44.2,30.8,29.98,WNW,290,4.0,7.0,59,0.00,,,0.03,WUHU216DAVISVP2,2013-02-14 16:40:00,
2013-02-14 11:45:00,44.5,30.6,29.97,NNW,328,1.0,7.0,58,0.00,,,0.03,WUHU216DAVISVP2,2013-02-14 16:45:00,
2013-02-14 11:50:00,44.3,30.9,29.97,North,359,3.0,7.0,59,0.00,,,0.03,WUHU216DAVISVP2,2013-02-14 16:50:00,
2013-02-14 11:55:00,44.1,30.3,29.97,NNW,342,1.0,7.0,58,0.00,,,0.03,WUHU216DAVISVP2,2013-02-14 16:55:00,
2013-02-14 12:00:00,44.4,30.5,29.97,WNW,289,6.0,7.0,58,0.00,,,0.03,WUHU216DAVISVP2,2013-02-14 17:00:00,
2013-02-14 12:05:00,44.6,31.1,29.97,North,359,1.0,7.0,59,0.00,,,0.03,WUHU216DAVISVP2,2013-02-14 17:05:00,
2013-02-14 12:10:00,45.1,31.3,29.97,NNE,22,0.0,7.0,58,0.00,,,0.03,WUHU216DAVISVP2,2013-02-14 17:10:00,
2013-02-14 12:15:00,46.2,30.5,29.97,WNW,288,3.0,7.0,54,0.00,,,0.03,WUHU216DAVISVP2,2013-02-14 17:15:00,
2013-02-14 12:20:00,45.9,30.6,29.97,North,11,4.0,6.0,55,0.00,,,0.03,WUHU216DAVISVP2,2013-02-14 17:20:00,
2013-02-14 12:25:00,45.7,30.4,29.96,West,270,1.0,4.0,55,0.00,,,0.03,WUHU216DAVISVP2,2013-02-14 17:25:00,
2013-02-14 12:31:00,45.7,30.0,29.97,NE,45,1.0,4.0,54,0.00,,,0.03,WUHU216DAVISVP2,2013-02-14 17:31:00,
2013-02-14 12:36:00,46.0,32.0,29.97,SW,220,1.0,4.0,58,0.00,,,0.03,WUHU216DAVISVP2,2013-02-14 17:36:00,
2013-02-14 12:41:00,47.4,30.6,29.96,WSW,243,3.0,4.0,52,0.00,,,0.03,WUHU216DAVISVP2,2013-02-14 17:41:00,
2013-02-14 12:46:00,48.1,30.8,29.96,SW,235,2.0,5.0,51,0.00,,,0.03,WUHU216DAVISVP2,2013-02-14 17:46:00,
2013-02-14 12:51:00,48.2,29.9,29.96,SW,231,0.0,5.0,49,0.00,,,0.03,WUHU216DAVISVP2,2013-02-14 17:51:00,
2013-02-14 12:56:00,48.4,30.1,29.96,SSW,207,3.0,5.0,49,0.00,,,0.03,WUHU216DAVISVP2,2013-02-14 17:56:00,
2013-02-14 13:02:00,49.2,30.8,29.95,WSW,256,3.0,6.0,49,0.00,,,0.03,WUHU216DAVISVP2,2013-02-14 18:02:00,
2013-02-14 13:07:00,48.6,29.7,29.96,North,354,0.0,6.0,48,0.00,,,0.03,WUHU216DAVISVP2,2013-02-14 18:07:00,
2013-02-14 13:13:00,48.1,30.3,29.96,ENE,57,0.0,6.0,50,0.00,,,0.03,WUHU216DAVISVP2,2013-02-14 18:13:00,
2013-02-14 13:18:00,48.3,29.4,29.96,WNW,289,1.0,6.0,48,0.00,,,0.03,WUHU216DAVISVP2,2013-02-14 18:18:00,
2013-02-14 13:23:00,48.7,30.3,29.96,West,264,3.0,4.0,49,0.00,,,0.03,WUHU216DAVISVP2,2013-02-14 18:23:00,
2013-02-14 13:28:00,49.0,29.0,29.95,NNW,339,1.0,4.0,46,0.00,,,0.03,WUHU216DAVISVP2,2013-02-14 18:28:00,
2013-02-14 13:33:00,48.7,29.3,29.95,SW,233,6.0,6.0,47,0.00,,,0.03,WUHU216DAVISVP2,2013-02-14 18:33:00,
2013-02-14 13:38:00,49.0,28.5,29.95,West,280,0.0,6.0,45,0.00,,,0.03,WUHU216DAVISVP2,2013-02-14 18:38:00,
2013-02-14 13:43:00,49.9,28.7,29.95,NNE,14,1.0,6.0,44,0.00,,,0.03,WUHU216DAVISVP2,2013-02-14 18:43:00,
2013-02-14 13:48:00,49.5,27.2,29.95,NNW,336,2.0,7.0,42,0.00,,,0.03,WUHU216DAVISVP2,2013-02-14 18:48:00,
2013-02-14 13:53:00,48.9,28.4,29.95,SW,219,0.0,7.0,45,0.00,,,0.03,WUHU216DAVISVP2,2013-02-14 18:53:00,
2013-02-14 13:58:00,49.0,27.3,29.95,NNE,12,2.0,7.0,43,0.00,,,0.03,WUHU216DAVISVP2,2013-02-14 18:58:00,
2013-02-14 14:03:00,48.7,27.0,29.95,South,179,1.0,7.0,43,0.00,,,0.03,WUHU216DAVISVP2,2013-02-14 19:03:00,
2013-02-14 14:08:00,49.0,26.1,29.95,South,186,3.0,6.0,41,0.00,,,0.03,WUHU216DAVISVP2,2013-02-14 19:08:00,
2013-02-14 14:13:00,49.7,26.2,29.95,SSW,194,2.0,5.0,40,0.00,,,0.03,WUHU216DAVISVP2,2013-02-14 19:13:00,
2013-02-14 14:18:00,49.9,25.7,29.95,South,175,1.0,5.0,39,0.00,,,0.03,WUHU216DAVISVP2,2013-02-14 19:18:00,
2013-02-14 14:25:00,49.6,31.2,29.95,South,174,1.0,5.0,49,0.00,,,0.03,WUHU216DAVISVP2,2013-02-14 19:25:00,
2013-02-14 14:30:00,48.3,31.5,29.95,SSE,162,2.0,7.0,52,0.00,,,0.03,WUHU216DAVISVP2,2013-02-14 19:30:00,
2013-02-14 14:35:00,47.4,31.6,29.94,South,176,2.0,7.0,54,0.00,,,0.03,WUHU216DAVISVP2,2013-02-14 19:35:00,
2013-02-14 14:40:00,47.2,31.4,29.94,ENE,64,3.0,7.0,54,0.00,,,0.03,WUHU216DAVISVP2,2013-02-14 19:40:00,
2013-02-14 14:45:00,46.9,31.6,29.94,East,87,1.0,7.0,55,0.00,,,0.03,WUHU216DAVISVP2,2013-02-14 19:45:00,
2013-02-14 14:50:00,46.7,31.9,29.94,SSE,157,3.0,6.0,56,0.00,,,0.03,WUHU216DAVISVP2,2013-02-14 19:50:00,
2013-02-14 14:55:00,46.3,31.9,29.95,SE,142,0.0,6.0,57,0.00,,,0.03,WUHU216DAVISVP2,2013-02-14 19:55:00,
2013-02-14 15:00:00,46.4,32.0,29.95,ESE,122,2.0,7.0,57,0.00,,,0.03,WUHU216DAVISVP2,2013-02-14 20:00:00,
2013-02-14 15:05:00,46.4,32.0,29.95,SSE,160,2.0,7.0,57,0.00,,,0.03,WUHU216DAVISVP2,2013-02-14 20:05:00,
2013-02-14 15:10:00,46.2,32.3,29.95,ESE,103,1.0,7.0,58,0.00,,,0.03,WUHU216DAVISVP2,2013-02-14 20:10:00,
2013-02-14 15:15:00,46.1,32.6,29.95,ENE,73,3.0,7.0,59,0.00,,,0.03,WUHU216DAVISVP2,2013-02-14 20:15:00,
2013-02-14 15:20:00,46.0,31.7,29.95,ENE,60,4.0,7.0,57,0.00,,,0.03,WUHU216DAVISVP2,2013-02-14 20:20:00,
2013-02-14 15:25:00,45.7,30.9,29.95,East,93,1.0,7.0,56,0.00,,,0.03,WUHU216DAVISVP2,2013-02-14 20:25:00,
2013-02-14 15:30:00,45.6,30.8,29.96,ESE,104,3.0,7.0,56,0.00,,,0.03,WUHU216DAVISVP2,2013-02-14 20:30:00,
2013-02-14 15:35:00,45.7,30.9,29.96,ENE,74,0.0,7.0,56,0.00,,,0.03,WUHU216DAVISVP2,2013-02-14 20:35:00,
2013-02-14 15:40:00,45.9,31.6,29.96,SSE,149,2.0,6.0,57,0.00,,,0.03,WUHU216DAVISVP2,2013-02-14 20:40:00,
2013-02-14 15:45:00,45.9,31.6,29.96,SSE,151,1.0,6.0,57,0.00,,,0.03,WUHU216DAVISVP2,2013-02-14 20:45:00,
2013-02-14 15:50:00,46.0,31.2,29.95,East,93,1.0,7.0,56,0.00,,,0.03,WUHU216DAVISVP2,2013-02-14 20:50:00,
2013-02-14 15:55:00,45.9,31.6,29.95,SSE,159,4.0,7.0,57,0.00,,,0.03,WUHU216DAVISVP2,2013-02-14 20:55:00,
2013-02-14 16:00:00,45.9,31.6,29.95,ESE,106,1.0,7.0,57,0.00,,,0.03,WUHU216DAVISVP2,2013-02-14 21:00:00,
2013-02-14 16:05:00,46.1,31.3,29.95,SE,141,0.0,7.0,56,0.00,,,0.03,WUHU216DAVISVP2,2013-02-14 21:05:00,
2013-02-14 16:10:00,46.0,30.8,29.95,SSE,147,0.0,7.0,55,0.00,,,0.03,WUHU216DAVISVP2,2013-02-14 21:10:00,
2013-02-14 16:15:00,45.8,33.6,29.94,ENE,76,2.0,7.0,62,0.00,,,0.03,WUHU216DAVISVP2,2013-02-14 21:15:00,
2013-02-14 16:20:00,45.5,32.9,29.94,East,81,1.0,6.0,61,0.00,,,0.03,WUHU216DAVISVP2,2013-02-14 21:20:00,
2013-02-14 16:25:00,45.5,32.9,29.94,ENE,62,4.0,6.0,61,0.00,,,0.03,WUHU216DAVISVP2,2013-02-14 21:25:00,
2013-02-14 16:30:00,45.3,33.5,29.94,East,84,2.0,6.0,63,0.00,,,0.03,WUHU216DAVISVP2,2013-02-14 21:30:00,
2013-02-14 16:35:00,45.0,33.2,29.94,East,81,0.0,6.0,63,0.00,,,0.03,WUHU216DAVISVP2,2013-02-14 21:35:00,
2013-02-14 16:40:00,44.8,33.8,29.94,East,91,1.0,6.0,65,0.00,,,0.03,WUHU216DAVISVP2,2013-02-14 21:40:00,
2013-02-14 16:45:00,44.5,32.8,29.94,ENE,77,3.0,4.0,63,0.00,,,0.03,WUHU216DAVISVP2,2013-02-14 21:45:00,
2013-02-14 16:50:00,44.4,31.9,29.94,ESE,115,2.0,5.0,61,0.00,,,0.03,WUHU216DAVISVP2,2013-02-14 21:50:00,
2013-02-14 16:55:00,44.3,31.8,29.95,SE,129,0.0,5.0,61,0.00,,,0.03,WUHU216DAVISVP2,2013-02-14 21:55:00,
2013-02-14 17:00:00,44.3,32.2,29.95,SE,133,0.0,4.0,62,0.00,,,0.03,WUHU216DAVISVP2,2013-02-14 22:00:00,
2013-02-14 17:06:00,44.2,32.1,29.96,ESE,121,1.0,4.0,62,0.00,,,0.03,WUHU216DAVISVP2,2013-02-14 22:06:00,
2013-02-14 17:11:00,44.1,32.4,29.96,ESE,116,2.0,3.0,63,0.00,,,0.03,WUHU216DAVISVP2,2013-02-14 22:11:00,
2013-02-14 17:18:00,43.9,32.2,29.97,SE,141,0.0,4.0,63,0.00,,,0.03,WUHU216DAVISVP2,2013-02-14 22:18:00,
2013-02-14 17:23:00,43.8,32.1,29.97,SE,141,0.0,4.0,63,0.00,,,0.03,WUHU216DAVISVP2,2013-02-14 22:23:00,
2013-02-14 17:28:00,43.6,31.9,29.96,SE,136,0.0,4.0,63,0.00,,,0.03,WUHU216DAVISVP2,2013-02-14 22:28:00,
2013-02-14 17:33:00,43.5,32.2,29.97,SE,136,0.0,3.0,64,0.00,,,0.03,WUHU216DAVISVP2,2013-02-14 22:33:00,
2013-02-14 17:38:00,43.3,33.5,29.97,SE,136,0.0,2.0,68,0.00,,,0.03,WUHU216DAVISVP2,2013-02-14 22:38:00,
2013-02-14 17:43:00,43.1,33.0,29.97,SE,136,0.0,2.0,67,0.00,,,0.03,WUHU216DAVISVP2,2013-02-14 22:43:00,
2013-02-14 17:48:00,42.9,32.8,29.97,SE,136,0.0,2.0,67,0.00,,,0.03,WUHU216DAVISVP2,2013-02-14 22:48:00,
2013-02-14 17:53:00,42.8,33.1,29.97,SE,136,0.0,2.0,68,0.00,,,0.03,WUHU216DAVISVP2,2013-02-14 22:53:00,
2013-02-14 17:58:00,42.6,33.2,29.97,SE,136,0.0,2.0,69,0.00,,,0.03,WUHU216DAVISVP2,2013-02-14 22:58:00,
2013-02-14 18:03:00,42.4,33.0,29.97,SE,136,0.0,2.0,69,0.00,,,0.03,WUHU216DAVISVP2,2013-02-14 23:03:00,
2013-02-14 18:08:00,42.2,32.5,29.97,SE,136,0.0,2.0,68,0.00,,,0.03,WUHU216DAVISVP2,2013-02-14 23:08:00,
2013-02-14 18:13:00,42.0,32.7,29.97,SE,136,0.0,2.0,69,0.00,,,0.03,WUHU216DAVISVP2,2013-02-14 23:13:00,
2013-02-14 18:18:00,41.9,32.6,29.97,SE,136,1.0,2.0,69,0.00,,,0.03,WUHU216DAVISVP2,2013-02-14 23:18:00,
2013-02-14 18:23:00,41.8,32.5,29.98,SE,136,0.0,2.0,69,0.00,,,0.03,WUHU216DAVISVP2,2013-02-14 23:23:00,
2013-02-14 18:28:00,41.6,32.6,29.97,SE,136,0.0,1.0,70,0.00,,,0.03,WUHU216DAVISVP2,2013-02-14 23:28:00,
2013-02-14 18:33:00,41.5,32.5,29.97,SE,136,0.0,1.0,70,0.00,,,0.03,WUHU216DAVISVP2,2013-02-14 23:33:00,
2013-02-14 18:38:00,41.5,32.9,29.98,SE,136,0.0,1.0,71,0.00,,,0.03,WUHU216DAVISVP2,2013-02-14 23:38:00,
2013-02-14 18:43:00,41.4,32.8,29.98,SE,136,0.0,1.0,71,0.00,,,0.03,WUHU216DAVISVP2,2013-02-14 23:43:00,
2013-02-14 18:48:00,41.3,32.7,29.98,SE,136,0.0,1.0,71,0.00,,,0.03,WUHU216DAVISVP2,2013-02-14 23:48:00,
2013-02-14 18:53:00,41.2,32.6,29.98,SE,136,0.0,1.0,71,0.00,,,0.03,WUHU216DAVISVP2,2013-02-14 23:53:00,
2013-02-14 19:00:00,40.9,32.3,29.98,SE,136,0.0,1.0,71,0.00,,,0.03,WUHU216DAVISVP2,2013-02-15 00:00:00,
2013-02-14 19:06:00,40.8,32.5,29.98,SE,136,0.0,1.0,72,0.00,,,0.03,WUHU216DAVISVP2,2013-02-15 00:06:00,
2013-02-14 19:12:00,40.7,32.4,29.98,SE,136,0.0,2.0,72,0.00,,,0.03,WUHU216DAVISVP2,2013-02-15 00:12:00,
2013-02-14 19:17:00,40.6,32.7,29.98,SE,136,0.0,2.0,73,0.00,,,0.03,WUHU216DAVISVP2,2013-02-15 00:17:00,
2013-02-14 19:22:00,40.4,32.5,29.98,SE,136,0.0,2.0,73,0.00,,,0.03,WUHU216DAVISVP2,2013-02-15 00:22:00,
2013-02-14 19:27:00,40.3,32.7,29.98,SE,136,0.0,1.0,74,0.00,,,0.03,WUHU216DAVISVP2,2013-02-15 00:27:00,
2013-02-14 19:32:00,40.2,32.6,29.98,SE,136,0.0,1.0,74,0.00,,,0.03,WUHU216DAVISVP2,2013-02-15 00:32:00,
2013-02-14 19:37:00,40.1,32.9,29.98,SE,136,0.0,1.0,75,0.00,,,0.03,WUHU216DAVISVP2,2013-02-15 00:37:00,
2013-02-14 19:42:00,40.0,32.8,29.98,SE,136,0.0,1.0,75,0.00,,,0.03,WUHU216DAVISVP2,2013-02-15 00:42:00,
2013-02-14 19:47:00,39.8,32.9,29.98,SE,136,0.0,1.0,76,0.00,,,0.03,WUHU216DAVISVP2,2013-02-15 00:47:00,
2013-02-14 19:52:00,39.8,32.8,29.98,SE,136,0.0,0.0,76,0.00,,,0.03,WUHU216DAVISVP2,2013-02-15 00:52:00,
2013-02-14 19:57:00,39.6,32.7,29.98,SE,136,0.0,1.0,76,0.00,,,0.03,WUHU216DAVISVP2,2013-02-15 00:57:00,
2013-02-14 20:02:00,39.5,32.9,29.98,SE,136,0.0,1.0,77,0.00,,,0.03,WUHU216DAVISVP2,2013-02-15 01:02:00,
2013-02-14 20:07:00,39.5,32.9,29.98,SE,136,0.0,1.0,77,0.00,,,0.03,WUHU216DAVISVP2,2013-02-15 01:07:00,
2013-02-14 20:12:00,39.4,32.8,29.98,SE,136,0.0,2.0,77,0.00,,,0.03,WUHU216DAVISVP2,2013-02-15 01:12:00,
2013-02-14 20:17:00,39.4,33.1,29.98,SE,136,0.0,2.0,78,0.00,,,0.03,WUHU216DAVISVP2,2013-02-15 01:17:00,
2013-02-14 20:23:00,39.5,33.6,29.98,SE,136,0.0,2.0,79,0.00,,,0.03,WUHU216DAVISVP2,2013-02-15 01:23:00,
2013-02-14 20:28:00,39.4,33.5,29.99,SE,136,0.0,2.0,79,0.00,,,0.03,WUHU216DAVISVP2,2013-02-15 01:28:00,
2013-02-14 20:33:00,39.4,33.7,29.99,SE,136,0.0,2.0,80,0.00,,,0.03,WUHU216DAVISVP2,2013-02-15 01:33:00,
2013-02-14 20:38:00,39.4,33.7,30.00,SE,136,0.0,1.0,80,0.00,,,0.03,WUHU216DAVISVP2,2013-02-15 01:38:00,
2013-02-14 20:43:00,39.3,33.7,30.00,SE,134,0.0,3.0,80,0.00,,,0.03,WUHU216DAVISVP2,2013-02-15 01:43:00,
2013-02-14 20:48:00,39.3,33.7,29.99,SE,134,0.0,3.0,80,0.00,,,0.03,WUHU216DAVISVP2,2013-02-15 01:48:00,
2013-02-14 20:53:00,39.2,33.9,29.99,SE,134,0.0,3.0,81,0.00,,,0.03,WUHU216DAVISVP2,2013-02-15 01:53:00,
2013-02-14 20:58:00,39.1,33.8,29.99,SE,134,0.0,3.0,81,0.00,,,0.03,WUHU216DAVISVP2,2013-02-15 01:58:00,
2013-02-14 21:03:00,39.1,33.8,29.99,SE,134,0.0,2.0,81,0.00,,,0.03,WUHU216DAVISVP2,2013-02-15 02:03:00,
2013-02-14 21:08:00,39.0,34.0,29.99,SE,134,0.0,2.0,82,0.00,,,0.03,WUHU216DAVISVP2,2013-02-15 02:08:00,
2013-02-14 21:13:00,38.9,33.9,29.99,SE,134,0.0,2.0,82,0.00,,,0.03,WUHU216DAVISVP2,2013-02-15 02:13:00,
2013-02-14 21:18:00,38.8,34.1,29.99,SE,134,0.0,2.0,83,0.00,,,0.03,WUHU216DAVISVP2,2013-02-15 02:18:00,
2013-02-14 21:23:00,38.8,34.1,29.99,SE,134,0.0,2.0,83,0.00,,,0.03,WUHU216DAVISVP2,2013-02-15 02:23:00,
2013-02-14 21:28:00,38.7,34.3,29.99,SE,134,1.0,2.0,84,0.00,,,0.03,WUHU216DAVISVP2,2013-02-15 02:28:00,
2013-02-14 21:33:00,38.5,34.1,29.99,SE,134,0.0,2.0,84,0.00,,,0.03,WUHU216DAVISVP2,2013-02-15 02:33:00,
2013-02-14 21:38:00,38.4,34.0,29.98,SE,134,0.0,2.0,84,0.00,,,0.03,WUHU216DAVISVP2,2013-02-15 02:38:00,
2013-02-14 21:43:00,38.3,33.9,29.99,SE,134,0.0,2.0,84,0.00,,,0.03,WUHU216DAVISVP2,2013-02-15 02:43:00,
2013-02-14 21:48:00,38.2,33.8,29.98,SE,134,0.0,2.0,84,0.00,,,0.03,WUHU216DAVISVP2,2013-02-15 02:48:00,
2013-02-14 21:53:00,38.1,33.7,29.99,SE,134,0.0,2.0,84,0.00,,,0.03,WUHU216DAVISVP2,2013-02-15 02:53:00,
2013-02-14 21:58:00,37.9,33.5,29.99,SE,134,0.0,2.0,84,0.00,,,0.03,WUHU216DAVISVP2,2013-02-15 02:58:00,
2013-02-14 22:03:00,37.8,33.7,29.99,SE,134,0.0,0.0,85,0.00,,,0.03,WUHU216DAVISVP2,2013-02-15 03:03:00,
2013-02-14 22:08:00,37.6,33.5,29.99,SE,134,0.0,0.0,85,0.00,,,0.03,WUHU216DAVISVP2,2013-02-15 03:08:00,
2013-02-14 22:13:00,37.5,33.4,29.99,SE,134,0.0,0.0,85,0.00,,,0.03,WUHU216DAVISVP2,2013-02-15 03:13:00,
2013-02-14 22:18:00,37.3,33.2,29.99,SE,134,0.0,0.0,85,0.00,,,0.03,WUHU216DAVISVP2,2013-02-15 03:18:00,
2013-02-14 22:23:00,37.2,33.1,29.99,SE,134,0.0,0.0,85,0.00,,,0.03,WUHU216DAVISVP2,2013-02-15 03:23:00,
2013-02-14 22:28:00,37.0,33.2,29.99,SE,134,0.0,0.0,86,0.00,,,0.03,WUHU216DAVISVP2,2013-02-15 03:28:00,
2013-02-14 22:33:00,36.9,33.1,29.99,SE,134,0.0,0.0,86,0.00,,,0.03,WUHU216DAVISVP2,2013-02-15 03:33:00,
2013-02-14 22:38:00,36.8,33.0,29.99,SE,134,0.0,0.0,86,0.00,,,0.03,WUHU216DAVISVP2,2013-02-15 03:38:00,
2013-02-14 22:45:00,36.5,32.7,29.99,SE,134,0.0,0.0,86,0.00,,,0.03,WUHU216DAVISVP2,2013-02-15 03:45:00,
2013-02-14 22:50:00,36.4,32.6,30.00,SE,134,0.0,0.0,86,0.00,,,0.03,WUHU216DAVISVP2,2013-02-15 03:50:00,
2013-02-14 22:55:00,36.2,32.7,30.00,SE,134,0.0,0.0,87,0.00,,,0.03,WUHU216DAVISVP2,2013-02-15 03:55:00,
2013-02-14 23:00:00,36.1,32.3,30.00,SE,134,0.0,0.0,86,0.00,,,0.03,WUHU216DAVISVP2,2013-02-15 04:00:00,
2013-02-14 23:05:00,36.0,32.5,30.00,SE,134,0.0,0.0,87,0.00,,,0.03,WUHU216DAVISVP2,2013-02-15 04:05:00,
2013-02-14 23:10:00,35.9,32.1,29.99,SE,134,0.0,1.0,86,0.00,,,0.03,WUHU216DAVISVP2,2013-02-15 04:10:00,
2013-02-14 23:16:00,35.9,32.1,30.00,SE,134,0.0,2.0,86,0.00,,,0.03,WUHU216DAVISVP2,2013-02-15 04:16:00,
2013-02-14 23:21:00,36.1,32.3,30.00,SE,134,0.0,2.0,86,0.00,,,0.03,WUHU216DAVISVP2,2013-02-15 04:21:00,
2013-02-14 23:26:00,36.2,32.1,30.00,SE,134,0.0,2.0,85,0.00,,,0.03,WUHU216DAVISVP2,2013-02-15 04:26:00,
2013-02-14 23:31:00,36.2,32.1,30.00,SE,134,0.0,2.0,85,0.00,,,0.03,WUHU216DAVISVP2,2013-02-15 04:31:00,
2013-02-14 23:36:00,36.3,32.2,30.00,SE,134,0.0,1.0,85,0.00,,,0.03,WUHU216DAVISVP2,2013-02-15 04:36:00,
2013-02-14 23:41:00,36.3,32.2,30.00,SE,134,0.0,1.0,85,0.00,,,0.03,WUHU216DAVISVP2,2013-02-15 04:41:00,
2013-02-14 23:46:00,36.3,32.2,30.00,SE,134,0.0,1.0,85,0.00,,,0.03,WUHU216DAVISVP2,2013-02-15 04:46:00,
2013-02-14 23:51:00,36.4,32.3,30.00,SE,134,0.0,2.0,85,0.00,,,0.03,WUHU216DAVISVP2,2013-02-15 04:51:00,
2013-02-14 23:56:00,36.4,32.3,30.00,SE,134,0.0,2.0,85,0.00,,,0.03,WUHU216DAVISVP2,2013-02-15 04:56:00,